Current weather by "City, St" or "zip code"  
 
Advertise Here

Current Conditions: Burlington/Mount Vernon, Skagit Regional Airport, WA

Fair


73.0 F

Last Updated on Jun 18 2021, 3:55 pm PDT
Humidity: 47%
Wind Speed: S 9.2 mph
Barometer 30.09 in
Dewpoint: 51.8 F
Visibility: 7.00 mi
Precip: --
Heat Index: NA
Wind Chill: NA
Current conditions at:

Burlington/Mount Vernon, Skagit Regional Airport, WA (KBVS)

Lat: 48.47083 Lon: 122.42083

Local Radar Image active severe weather and emergency alerts image image weather storm and storm spotter reports image weather observation monitoring service image
Local
Radar
Active
Alerts
Storm Reports Obs
Monitoring

Sign-up For Email & Text Message Weather Alert Notification Services


Advertise Here

Observation History for Burlington/Mount Vernon, Skagit Regional Airport, WA


Time Wind
(mph)
Vis
(mi)
Weather Precip (in) Temperature (F) Relative
Humidity
Wind
Chill
(F)
Heat
Index
(F)
Pressure
Air Dwpt altimeter
(in)
sea level
(mb)
Rmks
3:55 pm PDT S 9.2 7.00 Fair -- 73.0 51.8 47% NA NA 30.09 M
1:55 pm PDT N 0.0 G 12.7 7.00 Fair -- 72.0 53.6 53% NA NA 30.11 M
12:55 pm PDT S 8.1 7.00 Fair -- 70.0 53.6 57% NA NA 30.12 M
11:55 am PDT 3.5 G 11.5 7.00 Fair -- 70.0 51.8 53% NA NA 30.12 M
10:55 am PDT SE 8.1 8.00 Fair -- 68.0 51.8 56% NA NA 30.12 M
9:55 am PDT 6.9 7.00 NULL -- 66.0 51.8 60% NA NA 30.13 M
8:55 am PDT S 6.9 7.00 Fair -- 63.0 51.8 68% 63 NA 30.13 M
7:55 am PDT SE 8.1 8.00 Fair -- 61.0 51.8 72% 60 NA 30.14 M
6:55 am PDT SE 8.1 6.00 Fair with Haze -- 57.0 51.8 82% 55 NA 30.13 M
5:55 am PDT S 6.9 6.00 Fog/Mist -- 52.0 50.0 94% 50 NA 30.11 M
4:55 am PDT SE 5.8 9.00 Fair -- 50.0 50.0 100% 48 NA 30.11 M
3:35 am PDT 6.9 10.00 Fair -- 52.0 50.0 94% 50 NA 30.11 M
2:55 am PDT SE 8.1 9.00 Fair -- 52.0 50.0 94% 49 NA 30.11 M
1:55 am PDT S 4.6 10.00 Fair -- 52.0 50.0 94% 51 NA 30.11 M
12:55 am PDT SE 5.8 10.00 Fair -- 52.0 48.2 88% 50 NA 30.12 M
11:55 pm PDT N 0.0 10.00 Fair -- 50.0 44.6 82% NA NA 30.12 M
10:55 pm PDT N 0.0 10.00 Fair -- 52.0 44.6 77% NA NA 30.12 M
9:55 pm PDT N 0.0 9.00 Fair -- 54.0 44.6 72% NA NA 30.11 M
8:55 pm PDT S 9.2 9.00 Fair -- 61.0 42.8 52% 60 NA 30.11 M
7:35 pm PDT N 0.0 7.00 Fair -- 72.0 50.0 47% NA NA 30.11 M
6:55 pm PDT SW 6.9 7.00 Fair -- 73.0 48.2 41% NA NA 30.12 M
5:55 pm PDT NW 11.5 8.00 Fair -- 73.0 50.0 44% NA NA 30.25 M
5:55 pm PDT SW 5.8 5.00 Fair with Haze -- 77.0 50.0 39% NA NA 30.13 M
4:55 pm PDT NW 8.1 7.00 Fair -- 79.0 51.8 39% NA NA 30.14 M

Regional Weather Observation


Eastsound, Orcas Island Airport, WA (KORS)

Fair
68.0 F

Burlington/Mount Vernon, Skagit Regional Airport, WA (KBVS)

Fair
73.0 F

Whidbey Island Naval Air Station - Ault Field, WA (KNUW)

Mostly Cloudy
63.0 F

Arlington Municipal Airport, WA (KAWO)

Fair
66.0 F

Friday Harbor Airport, WA (KFHR)

Fair
68.0 F

Port Townsend Jefferson County International Airport, WA (K0S9)

Fair
63.0 F
Advertise Here

Advertise Here